Location: Shannon
(40.5500°S, 175.4167°E)
Time: 22:01:17
(UTC+00:00)

Meteor 1-16 Rocket - Pass Details

Date: 17 November 2025
Orbit: 789 x 905 km, 81.2° (Epoch: 14 December)

Event Time Altitude Azimuth Distance (km) Brightness Sun altitude
Exits shadow 15:28:03 14° 344° (NNW) 2,175 5.9 -13.7°
Maximum altitude 15:32:52 74° 260° (W) 854 4.1 -13.0°
Drops below altitude 10° 15:38:17 10° 174° (S) 2,402 7.2 -12.2°
Sets 15:40:41 0° 172° (S) 3,331 8.1 -11.9°
